Regional Weather Roundup
Issued by NWS

Home | Current Version | Previous Version | Graphics & Text | Print | Product List | Glossary On
Versions: 1 2 3 4 5 6 7 8 9 10 11 12 13 14 15 16 17 18 19 20 21 22 23 24 25 26 27 28 29 30 31 32 33 34 35 36 37 38 39 40 41 42 43 44 45 46 47 48 49 50
000
ASUS43 KLOT 031008
RWRIL

ILLINOIS REGIONAL WEATHER ROUNDUP
NATIONAL WEATHER SERVICE CHICAGO/ROMEOVILLE IL
500 AM CDT SUN MAY 03 2015

NOTE: "FAIR" INDICATES FEW OR NO CLOUDS BELOW 12,000 FEET WITH NO
SIGNIFICANT WEATHER AND/OR OBSTRUCTIONS TO VISIBILITY.

* THESE STATIONS ARE NOT UNDER NWS QUALITY CONTROL. THEY ALSO MAY NOT
  REPORT WEATHER SUCH AS PRECIPITATION OR FOG.

ILZ001-002-007-009-015-016-024-031100-
NORTHWEST ILLINOIS

CITY           SKY/WX    TMP DP  RH WIND       PRES   REMARKS
MOLINE         LGT RAIN  62  46  55 S9G22     29.91F
STERLING*      CLOUDY    55  46  71 SE6       29.94F
SAVANNA*       CLOUDY    61  46  59 S8        29.91F
$$

ILZ003-004-008-010-011-017-018-031100-
NORTH CENTRAL ILLINOIS

CITY           SKY/WX    TMP DP  RH WIND       PRES   REMARKS
ROCKFORD       CLOUDY    58  42  55 SE6       29.97R
FREEPORT*      CLOUDY    60  44  57 S9        29.94F
ROCHELLE*      MOCLDY    54  44  67 S5        29.96S
DE KALB*       MOCLDY    50  41  71 S8        29.98R
PERU*          MOCLDY    60  43  53 S9        29.97S
$$

ILZ005-006-012>014-019>023-031100-
NORTHEAST ILLINOIS

CITY           SKY/WX    TMP DP  RH WIND       PRES   REMARKS
CHICAGO-OHARE  CLOUDY    60  42  51 S8        29.96S
CHICAGO-MIDWAY CLOUDY    62  42  47 S7        29.98S
AURORA         CLOUDY    57  42  57 CALM      29.98R
LANSING*       CLOUDY    56  41  55 SW6       29.99S
JOLIET*        CLOUDY    60  46  58 S3        29.99R
WAUKEGAN       CLOUDY    57  42  57 SW6       29.95S
DUPAGE AIRPORT MOCLDY    54  45  71 S5        29.97S
KANKAKEE*      CLOUDY    57  44  61 S9        30.01R
WHEELING       CLOUDY    60  41  49 S5        29.98S
MORRIS*        CLOUDY    57  44  60 CALM      29.96R
ROMEOVILLE*    CLOUDY    56  45  65 S8        29.99R
NORTHERLY ISL    N/A     62  39  42 S7          N/A
$$

LMZ740>746-031100-
SOUTHERN LAKE MICHIGAN

STATION/POSITION SKY/WX   TEMP    WIND        PRES    VSBY  WAVE
                          AIR SEA DIR/SP/G                  HT/PER
                          (F)     (DEG/KT/KT) (MB)    (MI)  (FT/S)
HARRISON CRIB              63     200/ 17/ 21   N/A
BURNHAM HARBOR             62     200/  7/  9   N/A
CALUMET HARBOR             61     200/  6/  9   N/A
BURNS HARBOR               59     190/  9/ 13 1015.9S
MICHIGAN CITY              61     160/ 12/ 15   N/A
MICHIGAN CITY 6N           57 50  210/  8/ 10   N/A           1
ST. JOSEPH                 54 49  220/  8/  8   N/A           1
$$

ILZ025>027-034>036-040-047-049-050-058-095>099-031100-
WEST-CENTRAL ILLINOIS

CITY           SKY/WX    TMP DP  RH WIND       PRES   REMARKS
QUINCY         PTCLDY    60  46  59 S7        29.94S
GALESBURG*     CLOUDY    57  49  74 S3        29.95R
MACOMB*        MOCLDY    56  47  73 S9        29.96S
JACKSONVILLE*  MOCLDY    64  46  53 S8        29.97S
PITTSFIELD*    PTCLDY    59  47  64 S7        29.97S
$$

ILZ028>032-037-038-041>044-048-051>054-059>061-031100-
CENTRAL ILLINOIS

CITY           SKY/WX    TMP DP  RH WIND       PRES   REMARKS
PONTIAC        CLOUDY    57  46  66 E5        30.00S
BLOOMINGTON    LGT RAIN  58  47  66 S9        30.01R
DECATUR        CLOUDY    61  46  57 S9        30.01S
PEORIA         MOCLDY    62  46  55 S9        29.97S
LACON*         CLOUDY    61  44  53 S8        29.95S
LINCOLN*       CLOUDY    61  47  59 S9        29.98S
SPRINGFIELD    MOCLDY    62  46  55 S9        29.99S
TAYLORVILLE    CLOUDY    61  45  55 S9        30.01R
$$

ILZ033-039-045-046-055>057-062-063-031100-
EAST-CENTRAL ILLINOIS

CITY           SKY/WX    TMP DP  RH WIND       PRES   REMARKS
CHAMPAIGN      CLOUDY    61  46  57 S10       30.02R
DANVILLE*      CLOUDY    59  46  63 SW8       30.00R
RANTOUL*       CLOUDY    64  46  52 S7        30.01S
MATTOON        CLOUDY    61  46  57 S7        30.03R
PARIS*         CLOUDY    58  49  71 S5        30.05S
$$

ILZ079-100>102-031100-
SOUTHWEST ILLINOIS

CITY           SKY/WX    TMP DP  RH WIND       PRES   REMARKS
ALTON          CLOUDY    61  47  60 S6        30.01S
BELLEVILLE     CLOUDY    58  50  72 SE2       30.00S
CAHOKIA*       MOCLDY    60  47  61 SE6       30.00S
SPARTA*        CLOUDY    58  47  65 SE5       30.04S
$$

ILZ064>066-069>071-074>076-080>082-084>086-088>090-092>094-031100-
SOUTH-CENTRAL ILLINOIS

CITY           SKY/WX    TMP DP  RH WIND       PRES   REMARKS
CARBONDALE     CLOUDY    56  51  84 CALM      30.04S
CAIRO*         MOCLDY    55  53  92 CALM      30.05S
EFFINGHAM*     CLOUDY    61  44  53 SE3       30.05S
MARION         CLOUDY    59  48  67 S5        30.05S
MT. VERNON     CLOUDY    54  48  82 CALM      30.05S
CENTRALIA*     MOCLDY    60  47  61 S8        30.03S
SALEM*         CLOUDY    63  49  60 S6        30.03S
METROPOLIS*    PTCLDY    50  50 100 CALM      30.06S FOG
$$

ILZ067-068-072-073-078-083-087-091-031100-
SOUTHEAST ILLINOIS

CITY           SKY/WX    TMP DP  RH WIND       PRES   REMARKS
LAWRENCEVILLE  CLOUDY    58  51  78 S6        30.06S
FLORA*         CLOUDY    56  51  81 S5        30.05S
FAIRFIELD*     CLOUDY    57  51  79 CALM      30.04S
HARRISBURG*    MOCLDY    55  53  94 CALM      30.07R
ROBINSON*      CLOUDY    58  49  71 S5        30.06S
CARMI*         CLOUDY    54  48  80 SE5       30.05S
$$

ABBREVIATIONS USED IN REMARKS
   TC - TEMPERATURE IN CELSIUS
  WCI - WIND CHILL INDEX
   HX - HEAT INDEX
  VSB - VISIBILITY
$$



USA.gov is the U.S. government's official web portal to all federal, state and local government web resources and services.